K42C Weather Reports


Display with metric or nautical units.
time (UTC)temp
F
wind
direction
speed
MPH
gust
MPH
rain 1hr
in
rain 24hr
in
rain mn
in
humidity
%
barometer
mb
20260503194348 54 201 10.0 15.0 0.00 0.00 0.00 69 971.4
20260503193708 55 193 7.0 14.0 0.00 0.00 0.00 69 971.4
20260503193030 55 226 5.0 10.0 0.00 0.00 0.00 68 971.3
20260503192349 56 214 8.0 5.0 0.00 0.00 0.00 66 971.3
20260503191712 57 184 6.0 3.0 0.00 0.00 0.00 65 971.3
20260503191031 58 188 10.0 13.0 0.00 0.00 0.00 63 971.1
20260503190354 58 239 12.0 16.0 0.00 0.00 0.00 62 971.3
20260503185713 59 204 10.0 15.0 0.00 0.00 0.00 60 971.2
20260503185036 59 221 13.0 8.0 0.00 0.00 0.00 60 971.2
20260503184355 59 219 6.0 18.0 0.00 0.00 0.00 60 971.0
20260503183718 59 207 9.0 14.0 0.00 0.00 0.00 60 971.1
20260503182400 59 193 9.0 9.0 0.00 0.00 0.00 59 971.2
20260503181719 60 212 5.0 11.0 0.00 0.00 0.00 59 971.4
20260503181041 59 224 9.0 14.0 0.00 0.00 0.00 59 971.4
20260503180401 59 249 7.0 9.0 0.00 0.00 0.00 58 971.6
20260503175723 59 232 7.0 13.0 0.00 0.00 0.00 61 971.6
20260503175043 59 149 8.0 8.0 0.00 0.00 0.00 61 971.8
20260503173724 58 253 9.0 11.0 0.00 0.00 0.00 61 971.8
20260503173047 58 172 10.0 9.0 0.00 0.00 0.00 61 971.9
20260503172406 57 239 7.0 9.0 0.00 0.00 0.00 63 972.1
20260503171729 57 221 13.0 7.0 0.00 0.00 0.00 61 972.2
20260503171048 57 285 9.0 3.0 0.00 0.00 0.00 63 972.4
20260503170411 57 269 7.0 7.0 0.00 0.00 0.00 63 972.2
20260503150427 51 184 4.0 0.0 0.00 0.00 0.00 71 974.3
20260503131121 50 232 1.0 0.0 0.00 0.00 0.00 71 974.7
20260503130444 49 207 3.0 6.0 0.00 0.00 0.00 72 974.9
20260503110459 39 158 0.0 0.0 0.00 0.00 0.00 92 975.4
20260503081201 39 91 0.0 0.0 0.00 0.00 0.00 83 976.5
20260503080520 39 187 2.0 0.0 0.00 0.00 0.00 82 976.6
20260503072525 36 181 0.0 0.0 0.00 0.00 0.00 85 976.8
20260503071847 36 181 0.0 0.0 0.00 0.00 0.00 86 976.8
20260503071206 36 181 0.0 0.0 0.00 0.00 0.00 86 976.9
20260503070529 35 181 0.0 0.0 0.00 0.00 0.00 87 976.9
20260503054538 36 181 0.0 0.0 0.00 0.00 0.00 87 977.8
20260503053857 37 181 0.0 0.0 0.00 0.00 0.00 86 977.8
20260503053220 37 181 0.0 0.0 0.00 0.00 0.00 85 977.9
20260503052539 37 181 0.0 0.0 0.00 0.00 0.00 85 978.0
20260503051901 37 181 0.0 0.0 0.00 0.00 0.00 84 978.1
20260503051220 37 181 0.0 0.0 0.00 0.00 0.00 83 978.2
20260503050543 37 181 0.0 0.0 0.00 0.00 0.00 83 978.3
20260503045224 38 181 0.0 0.0 0.00 0.00 0.00 82 978.4
20260503044543 38 181 0.0 0.0 0.00 0.00 0.00 82 978.4
20260503043906 38 181 0.0 0.0 0.00 0.00 0.00 82 978.4
20260503043225 38 181 0.0 0.0 0.00 0.00 0.00 82 978.5
20260503042547 38 181 0.0 0.0 0.00 0.00 0.00 82 978.6
20260503041906 38 181 0.0 0.0 0.00 0.00 0.00 82 978.7
20260503041229 38 181 0.0 0.0 0.00 0.00 0.00 82 978.7
20260503040548 38 181 0.0 0.0 0.00 0.00 0.00 81 978.7
20260503035910 38 181 0.0 0.0 0.00 0.00 0.00 82 978.8
20260503035230 38 181 0.0 0.0 0.00 0.00 0.00 82 978.9
20260503034552 38 181 0.0 0.0 0.00 0.00 0.00 81 978.9
20260503033911 39 181 0.0 0.0 0.00 0.00 0.00 80 978.9
20260503033234 39 181 0.0 0.0 0.00 0.00 0.00 79 979.0
20260503032552 39 181 0.0 0.0 0.00 0.00 0.00 78 979.0
20260503031915 40 181 0.0 0.0 0.00 0.00 0.00 77 979.0
20260503031308 40 210 1.0 5.0 0.00 0.00 0.00 77 979.0
20260503031234 40 210 1.0 5.0 0.00 0.00 0.00 77 979.0
20260503030557 40 201 0.0 0.0 0.00 0.00 0.00 77 979.1
20260503025916 40 201 0.0 0.0 0.00 0.00 0.00 76 979.1
20260503025238 40 201 0.0 0.0 0.00 0.00 0.00 75 979.1
20260503024557 41 201 0.0 0.0 0.00 0.00 0.00 74 979.2
20260503023920 41 240 0.0 0.0 0.00 0.00 0.00 74 979.2
20260503023239 41 179 0.0 0.0 0.00 0.00 0.00 73 979.3
20260503022601 41 179 0.0 0.0 0.00 0.00 0.00 72 979.2
20260503021920 42 208 0.0 3.0 0.00 0.00 0.00 71 979.1
20260503021243 42 135 0.0 0.0 0.00 0.00 0.00 70 979.1
20260503020602 42 205 3.0 0.0 0.00 0.00 0.00 69 979.1
20260503015924 43 188 3.0 4.0 0.00 0.00 0.00 68 979.1
20260503015243 43 207 4.0 0.0 0.00 0.00 0.00 67 979.1
20260503014606 43 249 1.0 3.0 0.00 0.00 0.00 66 979.0
20260503013925 44 210 3.0 6.0 0.00 0.00 0.00 65 978.9
20260503013247 44 203 2.0 0.0 0.00 0.00 0.00 63 978.9
20260503012606 44 191 0.0 0.0 0.00 0.00 0.00 61 978.8
20260503011929 45 197 1.0 3.0 0.00 0.00 0.00 60 978.7
20260503011248 45 193 7.0 7.0 0.00 0.00 0.00 57 978.6
20260503010610 45 280 0.0 0.0 0.00 0.00 0.00 53 978.5
20260503005930 46 280 0.0 0.0 0.00 0.00 0.00 51 978.4
20260503005252 46 280 0.0 0.0 0.00 0.00 0.00 50 978.3
20260503004611 47 280 0.0 0.0 0.00 0.00 0.00 49 978.2
20260503003934 48 280 0.0 0.0 0.00 0.00 0.00 48 978.1
20260503003253 48 280 0.0 0.0 0.00 0.00 0.00 46 977.9
20260503002615 49 280 0.0 0.0 0.00 0.00 0.00 45 977.8
20260503001934 49 280 0.0 0.0 0.00 0.00 0.00 44 977.7
20260503001257 49 280 0.0 0.0 0.00 0.00 0.00 44 977.6
20260503000616 50 333 1.0 0.0 0.00 0.00 0.00 44 977.7
20260502235939 50 314 3.0 0.0 0.00 0.00 0.00 43 977.7
20260502235626 50 290 0.0 0.0 0.00 0.00 0.00 43 977.7
20260502235258 50 290 0.0 0.0 0.00 0.00 0.00 43 977.7
20260502234620 50 190 0.0 0.0 0.00 0.00 0.00 44 977.7
20260502233940 50 211 0.0 0.0 0.00 0.00 0.00 43 977.7
20260502233302 50 326 0.0 0.0 0.00 0.00 0.00 42 977.7
20260502232621 50 232 2.0 0.0 0.00 0.00 0.00 42 977.9
20260502231944 51 284 4.0 0.0 0.00 0.00 0.00 41 977.9
20260502231303 51 266 3.0 3.0 0.00 0.00 0.00 41 978.0
20260502225945 51 232 0.0 0.0 0.00 0.00 0.00 42 978.0
20260502225308 51 309 1.0 0.0 0.00 0.00 0.00 43 978.1
20260502224627 51 312 6.0 7.0 0.00 0.00 0.00 43 978.0
20260502223949 51 293 5.0 6.0 0.00 0.00 0.00 43 978.1
20260502223308 51 229 5.0 3.0 0.00 0.00 0.00 43 978.1
20260502222631 51 273 2.0 5.0 0.00 0.00 0.00 43 978.1
20260502221950 51 249 3.0 0.0 0.00 0.00 0.00 43 978.1
20260502221313 51 238 1.0 0.0 0.00 0.00 0.00 43 978.1
20260502220632 51 297 5.0 4.0 0.00 0.00 0.00 42 978.1
20260502215955 51 233 4.0 0.0 0.00 0.00 0.00 43 978.1
20260502215314 51 269 6.0 5.0 0.00 0.00 0.00 42 978.2
20260502214637 51 301 6.0 1.0 0.00 0.00 0.00 42 978.2
20260502213956 51 321 4.0 13.0 0.00 0.00 0.00 43 978.3
20260502213318 51 316 4.0 3.0 0.00 0.00 0.00 42 978.1
20260502212638 51 302 9.0 8.0 0.00 0.00 0.00 41 978.1
20260502212000 51 269 2.0 4.0 0.00 0.00 0.00 43 978.1
20260502211319 51 312 6.0 0.0 0.00 0.00 0.00 42 978.2
20260502210642 51 302 3.0 0.0 0.00 0.00 0.00 43 978.2
20260502210001 51 219 1.0 0.0 0.00 0.00 0.00 43 978.2
20260502205324 51 269 4.0 10.0 0.00 0.00 0.00 43 978.3
20260502204643 52 336 5.0 6.0 0.00 0.00 0.00 44 978.4
20260502204006 51 266 0.0 3.0 0.00 0.00 0.00 45 978.5
20260502203325 51 329 2.0 7.0 0.00 0.00 0.00 45 978.7
20260502202648 52 291 6.0 8.0 0.00 0.00 0.00 44 978.9
20260502202007 51 233 4.0 3.0 0.00 0.00 0.00 45 978.9
20260502201330 51 305 0.0 3.0 0.00 0.00 0.00 47 979.1
20260502200649 50 293 8.0 8.0 0.00 0.00 0.00 46 979.1
20260502200012 49 336 0.0 0.0 0.00 0.00 0.00 48 979.0